Kodiak, AK

12:23 PM AKST on February 11, 2016 (GMT -0900)
Kodiak

Weather History for PADQ - October, 2011

Change the Weather History Date:

Saturday, October 1, 2011

  Actual Average Record
Temperature  
Mean Temperature 49 °F 45 °F  
Max Temperature 52 °F 51 °F 61 °F (1937)
Min Temperature 45 °F 39 °F 25 °F (1972)
Degree Days  
Heating Degree Days 16 20  
Month to date heating degree days 16 20  
Since 1 July heating degree days 1108 1118  
Cooling Degree Days 0    
Month to date cooling degree days 0  
Year to date cooling degree days 0  
Moisture  
Dew Point 43 °F    
Average Humidity 0    
Maximum Humidity 0    
Minimum Humidity 0    
Precipitation  
Precipitation 0.39 in 0.29 in 3.52 in (2003)
Month to date precipitation 0.39 0.29  
Year to date precipitation 55.26 54.43  
Snow  
Snow 0.00 in 0.00 in T in (1965)
Month to date snowfall 0.0 0.0  
Since 1 September snowfall 0.0 0.0  
Snow Depth 0.00 in    
Sea Level Pressure  
Sea Level Pressure 29.38 in    
Wind  
Wind Speed 11 mph (North)    
Max Wind Speed 26 mph    
Max Gust Speed 33 mph    
Visibility 8 miles    
Events Rain    
T = Trace of Precipitation, MM = Missing Value Source: NWS Daily Summary

Daily Weather History Graph

Daily Weather History Graph

Search for Another Location

Airport or City:

Trip Planner

Search our weather history database for the weather conditions in past years. The results will help you decide how hot, cold, wet, or windy it might be!

Date:

Astronomy

Oct. 01, 2011 Rise Set
Actual Time 8:13 AM AKDT 7:44 PM AKDT
Civil Twilight 7:35 AM AKDT 8:22 PM AKDT
Nautical Twilight 6:49 AM AKDT 9:08 PM AKDT
Astronomical Twilight 6:01 AM AKDT 9:55 PM AKDT
Moon 2:51 PM AKDT (10/1) 9:31 PM AKDT (10/1)
Length of Visible Light 12h 47m
Length of Day
11h 30m
Waxing Crescent, 26% of the Moon is Illuminated
Oct 1
Waxing Crescent
Oct 3
First Quarter
Oct 11
Full
Oct 19
Last Quarter
Oct 26
New

Hourly Weather History & Observations

Time (AKDT) Temp. Windchill Dew Point Humidity Pressure Visibility Wind Dir Wind Speed Gust Speed Precip Events Conditions
12:28 AM 46.4 °F 40.7 °F 44.6 °F 93% 29.31 in 2.5 mi NE 12.7 mph - 0.03 in Rain Rain
12:35 AM 46.4 °F 40.4 °F 44.6 °F 93% 29.31 in 3.0 mi NE 13.8 mph 23.0 mph 0.06 in Rain Light Rain
12:53 AM 48.2 °F - 46.4 °F 93% 29.31 in 5.0 mi NE 19.6 mph 27.6 mph N/A Rain Light Rain
1:53 AM 48.0 °F - 45.0 °F 89% 29.32 in 4.0 mi NE 19.6 mph 24.2 mph 0.12 in Rain Rain
2:53 AM 46.9 °F - 44.1 °F 90% 29.33 in 6.0 mi NNE 17.3 mph - 0.10 in Rain Light Rain
3:53 AM 48.2 °F - 44.6 °F 87% 29.31 in 10.0 mi NNE 20.7 mph 28.8 mph N/A Rain Light Rain
4:53 AM 48.0 °F - 44.1 °F 86% 29.32 in 10.0 mi NNE 23.0 mph 29.9 mph 0.03 in Rain Light Rain
5:53 AM 45.0 °F 40.6 °F 43.0 °F 93% 29.34 in 10.0 mi NNE 8.1 mph - 0.06 in   Overcast
6:53 AM 46.9 °F - 44.1 °F 90% 29.36 in 10.0 mi ENE 11.5 mph - 0.02 in Rain Light Rain
7:53 AM 46.9 °F - 45.0 °F 93% 29.38 in 10.0 mi NE 13.8 mph - 0.02 in   Overcast
8:05 AM 46.4 °F 41.1 °F 44.6 °F 93% 29.38 in 10.0 mi NE 11.5 mph - N/A   Overcast
8:53 AM 48.0 °F - 45.0 °F 89% 29.39 in 10.0 mi NE 13.8 mph - N/A   Mostly Cloudy
9:53 AM 48.2 °F - 44.6 °F 87% 29.40 in 10.0 mi North 5.8 mph - N/A   Mostly Cloudy
10:53 AM 48.0 °F - 44.1 °F 86% 29.41 in 10.0 mi North 8.1 mph - N/A   Mostly Cloudy
11:53 AM 48.9 °F - 45.0 °F 86% 29.41 in 10.0 mi North 8.1 mph - N/A   Mostly Cloudy
12:53 PM 50.0 °F - 43.0 °F 77% 29.40 in 10.0 mi NNE 10.4 mph - N/A   Mostly Cloudy
1:53 PM 50.0 °F - 44.1 °F 80% 29.40 in 10.0 mi NNE 5.8 mph - 0.00 in   Mostly Cloudy
2:53 PM 52.0 °F - 44.1 °F 74% 29.38 in 10.0 mi North 4.6 mph - N/A   Mostly Cloudy
3:06 PM 51.8 °F - 42.8 °F 71% 29.38 in 10.0 mi WNW 9.2 mph - N/A   Overcast
3:53 PM 48.0 °F - 43.0 °F 83% 29.39 in 8.0 mi NNE 13.8 mph - 0.03 in Rain Light Rain
4:53 PM 48.0 °F - 43.0 °F 83% 29.39 in 10.0 mi WNW 3.5 mph - 0.05 in   Overcast
5:53 PM 46.0 °F - 44.1 °F 93% 29.39 in 3.0 mi Calm Calm - 0.05 in Rain Rain
6:42 PM 46.4 °F - 42.8 °F 87% 29.39 in 3.0 mi Calm Calm - 0.06 in Rain Light Rain
6:53 PM 46.0 °F - 43.0 °F 89% 29.40 in 3.0 mi Calm Calm - 0.06 in   Overcast
7:53 PM 45.0 °F - 43.0 °F 93% 29.41 in 7.0 mi Calm Calm - 0.01 in   Mostly Cloudy
8:22 PM 44.6 °F - 42.8 °F 93% 29.41 in 10.0 mi Calm Calm - N/A   Scattered Clouds
8:39 PM 44.6 °F - 42.8 °F 93% 29.41 in 10.0 mi Calm Calm - N/A   Scattered Clouds
8:53 PM 44.1 °F - 42.1 °F 93% 29.42 in 10.0 mi Calm Calm - N/A   Mostly Cloudy
9:53 PM 41.0 °F 37.1 °F 39.0 °F 93% 29.42 in 10.0 mi West 5.8 mph - N/A   Mostly Cloudy
10:38 PM 39.2 °F 35.0 °F 37.4 °F 93% 29.43 in 10.0 mi West 5.8 mph - N/A   Mostly Cloudy
10:53 PM 39.0 °F 34.8 °F 37.9 °F 96% 29.44 in 10.0 mi West 5.8 mph - N/A   Mostly Cloudy
11:53 PM 37.0 °F 31.6 °F 36.0 °F 96% 29.46 in 10.0 mi West 6.9 mph - N/A   Scattered Clouds